TimeMDT,TemperatureF,Dew PointF,Humidity,Sea Level PressureIn,VisibilityMPH,Wind Direction,Wind SpeedMPH,Gust SpeedMPH,PrecipitationIn,Events,Conditions,WindDirDegrees,DateUTC
12:53 AM,55.0,44.1,67,29.82,10.0,NW,5.8,-,N/A,,Clear,320,2013-06-13 06:53:00
1:53 AM,52.0,45.0,77,29.82,10.0,Calm,Calm,-,N/A,,Clear,0,2013-06-13 07:53:00
2:53 AM,52.0,44.1,74,29.80,10.0,NNW,8.1,-,N/A,,Clear,330,2013-06-13 08:53:00
3:53 AM,52.0,44.1,74,29.79,10.0,WNW,4.6,-,N/A,,Partly Cloudy,300,2013-06-13 09:53:00
4:53 AM,52.0,44.1,74,29.81,10.0,SSW,4.6,-,N/A,,Mostly Cloudy,210,2013-06-13 10:53:00
5:53 AM,51.1,46.0,83,29.80,10.0,NNE,3.5,-,0.00,,Mostly Cloudy,30,2013-06-13 11:53:00
6:53 AM,51.1,46.9,86,29.81,10.0,NNW,4.6,-,N/A,,Clear,340,2013-06-13 12:53:00
7:53 AM,54.0,46.0,75,29.82,10.0,NNW,5.8,-,N/A,,Clear,330,2013-06-13 13:53:00
8:53 AM,57.0,45.0,64,29.82,10.0,Calm,Calm,-,N/A,,Clear,0,2013-06-13 14:53:00
9:53 AM,59.0,46.0,62,29.82,10.0,NNE,5.8,-,N/A,,Partly Cloudy,20,2013-06-13 15:53:00
10:53 AM,62.1,46.9,58,29.79,10.0,North,6.9,-,N/A,,Partly Cloudy,360,2013-06-13 16:53:00
11:53 AM,63.0,46.9,56,29.78,10.0,Variable,4.6,-,N/A,,Partly Cloudy,0,2013-06-13 17:53:00
12:53 PM,63.0,46.0,54,29.79,10.0,NNW,9.2,-,N/A,,Partly Cloudy,330,2013-06-13 18:53:00
1:46 PM,57.2,44.6,63,29.94,10.0,WNW,16.1,-,N/A,Thunderstorm,Thunderstorm,300,2013-06-13 19:46:00
1:53 PM,55.9,45.0,67,29.86,10.0,NW,16.1,26.5,0.00,Rain-Thunderstorm,Light Thunderstorms and Rain,320,2013-06-13 19:53:00
2:17 PM,55.4,46.4,72,29.96,10.0,NW,16.1,-,0.00,,Overcast,320,2013-06-13 20:17:00
2:53 PM,55.9,44.1,64,29.89,10.0,ENE,13.8,-,0.00,,Overcast,70,2013-06-13 20:53:00
3:53 PM,57.9,41.0,53,29.89,10.0,NE,16.1,26.5,N/A,,Mostly Cloudy,50,2013-06-13 21:53:00
4:53 PM,57.0,41.0,55,29.89,10.0,ENE,13.8,25.3,N/A,,Partly Cloudy,60,2013-06-13 22:53:00
5:53 PM,57.9,44.1,60,29.88,10.0,NE,17.3,-,0.01,Rain,Light Rain,50,2013-06-13 23:53:00
6:53 PM,54.0,41.0,62,29.92,10.0,NE,15.0,-,0.00,,Overcast,40,2013-06-14 00:53:00
7:53 PM,52.0,41.0,66,29.96,10.0,ENE,8.1,16.1,0.00,,Overcast,60,2013-06-14 01:53:00
8:53 PM,48.9,42.1,77,29.99,10.0,SSE,9.2,-,0.05,Rain,Light Rain,160,2013-06-14 02:53:00
9:53 PM,48.0,41.0,77,29.99,10.0,SE,10.4,-,0.00,,Mostly Cloudy,130,2013-06-14 03:53:00
10:53 PM,46.0,39.0,76,30.00,10.0,ESE,6.9,-,N/A,,Partly Cloudy,110,2013-06-14 04:53:00
11:53 PM,45.0,39.0,80,29.99,10.0,ENE,3.5,-,N/A,,Clear,70,2013-06-14 05:53:00